| time (UTC) | temp F | wind direction | speed knots | gust knots | rain 1hr in | rain 24hr in | rain mn in | humidity % | barometer mb |
| 20260904085008 | 71 | 270 | 3.5 | 6.1 | 0.00 | 0.01 | 0.00 | 75 | 1015.2 |
| 20260904084009 | 70 | 270 | 3.5 | 7.0 | 0.00 | 0.01 | 0.00 | 78 | 1015.4 |
| 20260904083008 | 69 | 270 | 3.5 | 5.2 | 0.00 | 0.01 | 0.00 | 78 | 1015.4 |
| 20260904082009 | 68 | 270 | 4.3 | 7.8 | 0.00 | 0.01 | 0.00 | 80 | 1015.8 |
| 20260904081006 | 69 | 270 | 5.2 | 9.6 | 0.00 | 0.01 | 0.00 | 78 | 1015.8 |
| 20260904080014 | 68 | 270 | 5.2 | 8.7 | 0.00 | 0.01 | 0.00 | 79 | 1015.8 |
| 20260904074009 | 69 | 270 | 7.8 | 10.4 | 0.00 | 0.01 | 0.00 | 77 | 1015.7 |
| 20260904073007 | 69 | 270 | 5.2 | 8.7 | 0.00 | 0.01 | 0.00 | 75 | 1015.6 |
| 20260904071009 | 67 | 315 | 2.6 | 3.5 | 0.00 | 0.01 | 0.00 | 77 | 1016.0 |
| 20260904070023 | 67 | 225 | 2.6 | 3.5 | 0.00 | 0.01 | 0.00 | 81 | 1016.0 |
| 20260904065013 | 66 | 225 | 1.7 | 3.5 | 0.00 | 0.01 | 0.00 | 80 | 1016.0 |
| 20260904064010 | 66 | 0 | 0.9 | 2.6 | 0.00 | 0.01 | 0.00 | 82 | 1016.1 |
| 20260904063012 | 65 | 135 | 1.7 | 3.5 | 0.00 | 0.01 | 0.00 | 80 | 1015.9 |
| 20260904061011 | 63 | 0 | 0.0 | 1.7 | 0.00 | 0.01 | 0.00 | 86 | 1016.2 |
| 20260904060018 | 63 | 0 | 0.0 | 1.7 | 0.00 | 0.01 | 0.00 | 85 | 1016.5 |
| 20260904055006 | 62 | 0 | 0.0 | 0.9 | 0.00 | 0.01 | 0.00 | 88 | 1016.4 |
| 20260904054009 | 61 | 0 | 0.0 | 0.9 | 0.00 | 0.01 | 0.00 | 91 | 1016.4 |
| 20260904053012 | 60 | 0 | 0.0 | 0.9 | 0.00 | 0.01 | 0.00 | 93 | 1016.6 |
| 20260904052008 | 59 | 0 | 0.9 | 2.6 | 0.00 | 0.01 | 0.00 | 93 | 1016.6 |
| 20260904051007 | 58 | 0 | 0.0 | 0.9 | 0.00 | 0.01 | 0.00 | 94 | 1016.5 |
| 20260904050015 | 58 | 0 | 0.0 | 1.7 | 0.00 | 0.01 | 0.00 | 94 | 1016.3 |
| 20260904045008 | 58 | 0 | 0.0 | 0.9 | 0.00 | 0.01 | 0.00 | 93 | 1016.5 |
| 20260904044007 | 58 | 0 | 0.0 | 0.9 | 0.00 | 0.01 | 0.00 | 93 | 1016.5 |
| 20260904043011 | 58 | 0 | 0.0 | 0.9 | 0.00 | 0.01 | 0.00 | 93 | 1016.5 |
| 20260904042009 | 58 | 0 | 0.0 | 1.7 | 0.00 | 0.01 | 0.00 | 93 | 1016.5 |
| 20260904041006 | 58 | 0 | 0.0 | 1.7 | 0.00 | 0.01 | 0.00 | 93 | 1016.5 |
| 20260904040013 | 58 | 0 | 0.0 | 0.0 | 0.00 | 0.01 | 0.00 | 92 | 1016.3 |
| 20260904035010 | 58 | 0 | 0.0 | 0.9 | 0.00 | 0.01 | 0.00 | 92 | 1016.3 |
| 20260904034007 | 58 | 0 | 0.0 | 0.9 | 0.00 | 0.01 | 0.00 | 93 | 1016.5 |
| 20260904033009 | 58 | 0 | 0.0 | 1.7 | 0.00 | 0.01 | 0.00 | 92 | 1016.6 |
| 20260904032009 | 58 | 0 | 0.0 | 0.9 | 0.00 | 0.01 | 0.00 | 92 | 1016.5 |
| 20260904031006 | 58 | 0 | 0.0 | 0.9 | 0.00 | 0.01 | 0.00 | 91 | 1016.5 |
| 20260904030009 | 59 | 0 | 0.0 | 0.9 | 0.00 | 0.01 | 0.00 | 91 | 1016.6 |
| 20260904025007 | 59 | 0 | 0.0 | 1.7 | 0.00 | 0.01 | 0.00 | 90 | 1016.8 |
| 20260904024011 | 59 | 0 | 0.0 | 0.9 | 0.00 | 0.01 | 0.00 | 89 | 1016.8 |
| 20260904023007 | 60 | 0 | 0.0 | 1.7 | 0.00 | 0.01 | 0.00 | 89 | 1016.9 |
| 20260904022008 | 60 | 0 | 0.0 | 1.7 | 0.00 | 0.01 | 0.00 | 89 | 1016.8 |
| 20260904021008 | 60 | 0 | 0.9 | 1.7 | 0.00 | 0.01 | 0.00 | 89 | 1016.8 |
| 20260904020015 | 59 | 0 | 0.0 | 1.7 | 0.00 | 0.01 | 0.00 | 89 | 1016.8 |
| 20260904014008 | 59 | 0 | 0.0 | 0.9 | 0.00 | 0.01 | 0.00 | 89 | 1016.7 |
| 20260904012008 | 59 | 0 | 0.9 | 1.7 | 0.00 | 0.01 | 0.00 | 89 | 1016.6 |
| 20260904011008 | 59 | 0 | 0.9 | 1.7 | 0.00 | 0.01 | 0.00 | 89 | 1016.7 |
| 20260904010020 | 59 | 0 | 0.9 | 1.7 | 0.00 | 0.01 | 0.00 | 89 | 1016.8 |
| 20260904005005 | 60 | 0 | 0.0 | 0.9 | 0.00 | 0.01 | 0.00 | 88 | 1016.9 |
| 20260904004008 | 60 | 0 | 0.0 | 0.9 | 0.00 | 0.01 | 0.00 | 88 | 1017.0 |
| 20260904003011 | 59 | 0 | 0.0 | 0.9 | 0.00 | 0.01 | 0.00 | 88 | 1017.0 |
| 20260904002005 | 59 | 0 | 0.0 | 0.9 | 0.00 | 0.01 | 0.00 | 88 | 1017.2 |
| 20260904001008 | 59 | 0 | 0.0 | 0.9 | 0.00 | 0.01 | 0.00 | 87 | 1017.2 |
| 20260904000016 | 60 | 0 | 0.0 | 1.7 | 0.00 | 0.01 | 0.00 | 87 | 1017.3 |
| 20260903235005 | 59 | 0 | 0.0 | 0.9 | 0.00 | 0.01 | 0.00 | 86 | 1017.3 |
| 20260903234008 | 60 | 0 | 0.0 | 0.0 | 0.00 | 0.01 | 0.00 | 86 | 1017.3 |
| 20260903233010 | 60 | 0 | 0.0 | 0.0 | 0.00 | 0.01 | 0.00 | 85 | 1017.4 |
| 20260903232006 | 60 | 0 | 0.0 | 0.9 | 0.00 | 0.01 | 0.00 | 85 | 1017.5 |
| 20260903231008 | 60 | 0 | 0.0 | 0.9 | 0.00 | 0.01 | 0.00 | 84 | 1017.6 |
| 20260903230015 | 61 | 0 | 0.0 | 1.7 | 0.00 | 0.01 | 0.00 | 83 | 1017.3 |
| 20260903225008 | 61 | 0 | 0.0 | 1.7 | 0.00 | 0.01 | 0.00 | 82 | 1017.4 |
| 20260903224009 | 61 | 0 | 0.9 | 1.7 | 0.00 | 0.01 | 0.00 | 81 | 1017.5 |
| 20260903223011 | 62 | 0 | 0.9 | 1.7 | 0.00 | 0.01 | 0.00 | 81 | 1017.5 |
| 20260903222006 | 62 | 0 | 0.0 | 1.7 | 0.00 | 0.01 | 0.00 | 80 | 1017.5 |
| 20260903221006 | 62 | 0 | 0.9 | 1.7 | 0.00 | 0.01 | 0.00 | 80 | 1017.5 |
| 20260903213008 | 63 | 270 | 2.6 | 4.3 | 0.00 | 0.01 | 0.01 | 79 | 1017.5 |
| 20260903211006 | 64 | 270 | 1.7 | 4.3 | 0.00 | 0.01 | 0.01 | 77 | 1017.5 |
| 20260903210012 | 64 | 225 | 3.5 | 6.1 | 0.00 | 0.01 | 0.01 | 76 | 1017.4 |
| 20260903205006 | 65 | 135 | 3.5 | 7.0 | 0.00 | 0.01 | 0.01 | 75 | 1017.6 |
| 20260903204008 | 65 | 270 | 4.3 | 6.1 | 0.00 | 0.01 | 0.01 | 75 | 1017.7 |
| 20260903203008 | 64 | 45 | 5.2 | 7.8 | 0.00 | 0.01 | 0.01 | 75 | 1017.6 |
| 20260903202009 | 64 | 270 | 5.2 | 7.8 | 0.00 | 0.01 | 0.01 | 75 | 1017.5 |
| 20260903201006 | 65 | 270 | 5.2 | 7.8 | 0.00 | 0.02 | 0.01 | 74 | 1017.7 |
| 20260903200011 | 65 | 270 | 4.3 | 7.0 | 0.00 | 0.02 | 0.01 | 74 | 1017.8 |
| 20260903195006 | 65 | 135 | 6.1 | 8.7 | 0.00 | 0.02 | 0.01 | 73 | 1017.8 |
| 20260903193008 | 65 | 135 | 5.2 | 8.7 | 0.00 | 0.02 | 0.01 | 71 | 1017.7 |
| 20260903192008 | 66 | 270 | 6.1 | 9.6 | 0.00 | 0.02 | 0.01 | 70 | 1017.5 |
| 20260903191008 | 67 | 270 | 7.8 | 11.3 | 0.00 | 0.02 | 0.01 | 68 | 1017.4 |
| 20260903190016 | 68 | 270 | 8.7 | 12.2 | 0.00 | 0.02 | 0.01 | 67 | 1017.1 |
| 20260903185008 | 68 | 270 | 7.8 | 13.0 | 0.00 | 0.02 | 0.01 | 65 | 1017.1 |
| 20260903184008 | 67 | 135 | 7.0 | 10.4 | 0.00 | 0.02 | 0.01 | 67 | 1017.1 |
| 20260903183011 | 67 | 135 | 2.6 | 3.5 | 0.00 | 0.02 | 0.01 | 69 | 1016.8 |
| 20260903182006 | 66 | 270 | 1.7 | 3.5 | 0.00 | 0.02 | 0.01 | 71 | 1016.8 |
| 20260903181008 | 66 | 225 | 0.0 | 1.7 | 0.00 | 0.02 | 0.01 | 72 | 1016.7 |
| 20260903175008 | 66 | 225 | 0.0 | 0.9 | 0.00 | 0.02 | 0.01 | 70 | 1016.5 |
| 20260903174007 | 67 | 225 | 0.0 | 0.0 | 0.00 | 0.02 | 0.01 | 69 | 1016.4 |
| 20260903173011 | 67 | 225 | 0.0 | 1.7 | 0.00 | 0.02 | 0.01 | 70 | 1016.5 |
| 20260903172008 | 67 | 225 | 0.9 | 1.7 | 0.00 | 0.02 | 0.01 | 71 | 1016.6 |
| 20260903171007 | 67 | 270 | 0.9 | 2.6 | 0.00 | 0.02 | 0.01 | 68 | 1016.5 |
| 20260903165008 | 69 | 270 | 1.7 | 3.5 | 0.00 | 0.02 | 0.01 | 68 | 1016.7 |
| 20260903164009 | 69 | 270 | 2.6 | 4.3 | 0.00 | 0.02 | 0.01 | 66 | 1016.9 |
| 20260903163012 | 70 | 135 | 2.6 | 3.5 | 0.00 | 0.02 | 0.01 | 65 | 1016.6 |
| 20260903161007 | 71 | 225 | 0.9 | 3.5 | 0.00 | 0.02 | 0.01 | 64 | 1016.5 |
| 20260903160012 | 71 | 270 | 0.9 | 1.7 | 0.00 | 0.02 | 0.01 | 59 | 1016.8 |
| 20260903155006 | 71 | 270 | 0.0 | 0.9 | 0.00 | 0.02 | 0.01 | 64 | 1016.7 |
| 20260903154008 | 71 | 135 | 0.0 | 1.7 | 0.00 | 0.02 | 0.01 | 60 | 1016.7 |
| 20260903152007 | 71 | 0 | 0.9 | 2.6 | 0.00 | 0.02 | 0.01 | 59 | 1017.1 |
| 20260903150013 | 71 | 180 | 2.6 | 5.2 | 0.00 | 0.02 | 0.01 | 59 | 1017.0 |
| 20260903145012 | 72 | 270 | 3.5 | 7.0 | 0.00 | 0.02 | 0.01 | 56 | 1016.9 |
| 20260903143009 | 76 | 135 | 1.7 | 3.5 | 0.00 | 0.02 | 0.01 | 55 | 1016.7 |
| 20260903142009 | 75 | 0 | 3.5 | 7.0 | 0.00 | 0.02 | 0.01 | 54 | 1017.0 |
| 20260903141010 | 75 | 270 | 3.5 | 7.0 | 0.00 | 0.02 | 0.01 | 53 | 1016.9 |
| 20260903140011 | 74 | 270 | 3.5 | 6.1 | 0.00 | 0.02 | 0.01 | 56 | 1017.2 |
| 20260903135011 | 74 | 270 | 2.6 | 4.3 | 0.00 | 0.02 | 0.01 | 59 | 1017.1 |
| 20260903133013 | 73 | 135 | 2.6 | 3.5 | 0.00 | 0.02 | 0.01 | 64 | 1017.2 |
| 20260903132012 | 71 | 135 | 1.7 | 3.5 | 0.00 | 0.02 | 0.01 | 63 | 1017.1 |
| 20260903131010 | 72 | 135 | 2.6 | 3.5 | 0.00 | 0.02 | 0.01 | 61 | 1017.4 |
| 20260903130017 | 71 | 0 | 1.7 | 3.5 | 0.00 | 0.02 | 0.01 | 64 | 1017.6 |
| 20260903125006 | 71 | 225 | 2.6 | 3.5 | 0.00 | 0.02 | 0.01 | 63 | 1017.5 |
| 20260903124008 | 71 | 135 | 3.5 | 6.1 | 0.00 | 0.02 | 0.01 | 63 | 1017.5 |
| 20260903123010 | 71 | 135 | 2.6 | 3.5 | 0.00 | 0.02 | 0.01 | 63 | 1017.5 |
| 20260903122006 | 71 | 135 | 1.7 | 3.5 | 0.00 | 0.02 | 0.01 | 64 | 1017.5 |
| 20260903120020 | 71 | 135 | 4.3 | 7.0 | 0.00 | 0.02 | 0.01 | 65 | 1017.8 |
| 20260903115007 | 71 | 270 | 4.3 | 7.8 | 0.00 | 0.02 | 0.01 | 64 | 1017.9 |
| 20260903114010 | 71 | 270 | 3.5 | 7.0 | 0.00 | 0.02 | 0.01 | 61 | 1018.0 |
| 20260903113013 | 74 | 270 | 6.1 | 9.6 | 0.00 | 0.02 | 0.01 | 60 | 1018.0 |
| 20260903112006 | 73 | 315 | 5.2 | 9.6 | 0.00 | 0.02 | 0.01 | 62 | 1018.0 |
| 20260903111006 | 73 | 135 | 3.5 | 6.1 | 0.00 | 0.02 | 0.01 | 60 | 1018.4 |
| 20260903110016 | 74 | 135 | 4.3 | 7.8 | 0.00 | 0.02 | 0.01 | 59 | 1018.2 |
| 20260903105006 | 74 | 270 | 5.2 | 7.8 | 0.00 | 0.02 | 0.01 | 63 | 1018.1 |
| 20260903104012 | 73 | 270 | 3.5 | 7.0 | 0.00 | 0.02 | 0.01 | 63 | 1018.4 |
| 20260903103012 | 73 | 45 | 5.2 | 9.6 | 0.00 | 0.02 | 0.01 | 62 | 1018.4 |
| 20260903102008 | 72 | 0 | 3.5 | 6.1 | 0.00 | 0.02 | 0.01 | 66 | 1018.5 |
| 20260903101010 | 71 | 135 | 3.5 | 6.1 | 0.01 | 0.02 | 0.01 | 62 | 1018.6 |
| 20260903100015 | 71 | 135 | 2.6 | 3.5 | 0.01 | 0.02 | 0.01 | 65 | 1018.6 |
| 20260903095009 | 71 | 270 | 1.7 | 4.3 | 0.01 | 0.02 | 0.01 | 66 | 1018.8 |
| 20260903094007 | 71 | 135 | 2.6 | 4.3 | 0.01 | 0.02 | 0.01 | 68 | 1018.8 |
| 20260903093012 | 69 | 135 | 2.6 | 3.5 | 0.01 | 0.02 | 0.01 | 70 | 1018.9 |
| 20260903092007 | 69 | 135 | 0.9 | 2.6 | 0.01 | 0.02 | 0.01 | 71 | 1018.9 |
| 20260903091014 | 69 | 135 | 1.7 | 3.5 | 0.00 | 0.01 | 0.00 | 72 | 1018.9 |
| 20260903090012 | 69 | 270 | 1.7 | 3.5 | 0.00 | 0.01 | 0.00 | 71 | 1019.1 |